Sulphur Springs, TX

1:20 PM CST on December 13, 2017 (GMT -0600)
Sulphur Springs Municipal

Weather History for KSLR - March, 2014

Change the Weather History Date:

Tuesday, March 25, 2014

  Actual Average (KGVT) Record (KGVT)
Temperature  
Mean Temperature 50 °F -  
Max Temperature 59 °F 66 °F 82 °F (2015)
Min Temperature 41 °F 51 °F 32 °F (2006)
Degree Days  
Heating Degree Days 15    
Moisture  
Dew Point 30 °F    
Average Humidity 49    
Maximum Humidity 73    
Minimum Humidity 28    
Precipitation  
Precipitation 0.00 in - - ()
Sea Level Pressure  
Sea Level Pressure 30.31 in    
Wind  
Wind Speed 9 mph (NNE)    
Max Wind Speed 17 mph    
Max Gust Speed 21 mph    
Visibility 10 miles    
Events      
Averages and records for this station are not official NWS values.
T = Trace of Precipitation, MM = Missing Value Source: NWS Daily Summary

Daily Weather History Graph

Daily Weather History Graph

Search for Another Location

Airport or City:

Trip Planner

Search our weather history database for the weather conditions in past years. The results will help you decide how hot, cold, wet, or windy it might be!

Date:

Astronomy

Mar. 25, 2014 Rise Set
Actual Time 7:19 AM CDT 7:37 PM CDT
Civil Twilight 6:54 AM CDT 8:02 PM CDT
Nautical Twilight 6:25 AM CDT 8:31 PM CDT
Astronomical Twilight 5:56 AM CDT 9:00 PM CDT
Moon 3:26 AM CDT (3/25) 2:24 PM CDT (3/25)
Length of Visible Light 13h 07m
Length of Day
12h 18m
Waning Crescent, 32% of the Moon is Illuminated
Mar 25
Waning Crescent
Mar 30
New
Apr 7
First Quarter
Apr 15
Full
Apr 22
Last Quarter

Hourly Weather History & Observations

Time (CDT) Temp. Windchill Dew Point Humidity Pressure Visibility Wind Dir Wind Speed Gust Speed Precip Events Conditions
12:15 AM 44.6 °F 43.1 °F 36.5 °F 73% 30.17 in 10.0 mi SW 3.5 mph - N/A   Clear
12:35 AM 45.1 °F - 36.7 °F 72% 30.17 in 10.0 mi Calm Calm - N/A   Clear
12:55 AM 46.8 °F - 37.9 °F 71% 30.18 in 10.0 mi WNW 3.5 mph - N/A   Clear
1:15 AM 47.8 °F - 39.0 °F 71% 30.20 in 10.0 mi North 17.3 mph 20.7 mph N/A   Clear
1:35 AM 48.6 °F - 38.7 °F 69% 30.21 in 10.0 mi North 16.1 mph - N/A   Clear
1:55 AM 47.8 °F - 38.3 °F 70% 30.21 in 10.0 mi North 16.1 mph - N/A   Clear
2:15 AM 47.8 °F - 37.6 °F 68% 30.22 in 10.0 mi North 13.8 mph - N/A   Clear
2:35 AM 47.3 °F - 36.9 °F 67% 30.22 in 10.0 mi North 10.4 mph - N/A   Clear
2:55 AM 46.8 °F - 36.3 °F 67% 30.22 in 10.0 mi North 11.5 mph - N/A   Clear
3:15 AM 46.4 °F 40.7 °F 36.5 °F 68% 30.22 in 10.0 mi North 12.7 mph - N/A   Clear
3:35 AM 45.7 °F 40.2 °F 36.0 °F 69% 30.22 in 10.0 mi North 11.5 mph - N/A   Clear
3:55 AM 45.5 °F 40.3 °F 35.6 °F 68% 30.23 in 10.0 mi North 10.4 mph - N/A   Clear
4:15 AM 44.8 °F 41.0 °F 34.9 °F 68% 30.23 in 10.0 mi North 6.9 mph - N/A   Clear
4:35 AM 44.4 °F 41.2 °F 34.3 °F 68% 30.23 in 10.0 mi NNE 5.8 mph - N/A   Clear
4:55 AM 43.7 °F 39.1 °F 33.8 °F 68% 30.24 in 10.0 mi North 8.1 mph - N/A   Clear
5:15 AM 43.7 °F 38.1 °F 33.3 °F 67% 30.26 in 10.0 mi North 10.4 mph - N/A   Clear
5:35 AM 43.7 °F 38.6 °F 33.1 °F 66% 30.27 in 10.0 mi NNW 9.2 mph - N/A   Clear
5:55 AM 43.3 °F 37.7 °F 33.6 °F 69% 30.29 in 10.0 mi NNW 10.4 mph - N/A   Clear
6:15 AM 42.8 °F 36.6 °F 33.3 °F 69% 30.30 in 10.0 mi North 11.5 mph - N/A   Clear
6:35 AM 42.4 °F 35.7 °F 33.8 °F 71% 30.31 in 10.0 mi North 12.7 mph - N/A   Clear
6:55 AM 42.3 °F 35.1 °F 33.4 °F 71% 30.32 in 10.0 mi North 13.8 mph 20.7 mph N/A   Clear
7:15 AM 41.9 °F 34.0 °F 32.2 °F 68% 30.34 in 10.0 mi North 16.1 mph 19.6 mph N/A   Clear
7:35 AM 41.7 °F 34.4 °F 32.0 °F 68% 30.34 in 10.0 mi North 13.8 mph - N/A   Clear
7:55 AM 41.9 °F 35.4 °F 32.0 °F 68% 30.36 in 10.0 mi North 11.5 mph 17.3 mph N/A   Clear
8:15 AM 41.9 °F 35.4 °F 32.0 °F 68% 30.37 in 10.0 mi North 11.5 mph - N/A   Clear
8:35 AM 42.4 °F 36.1 °F 31.8 °F 66% 30.38 in 10.0 mi NNE 11.5 mph - N/A   Clear
8:55 AM 43.7 °F 39.1 °F 31.6 °F 63% 30.39 in 10.0 mi NNE 8.1 mph - N/A   Clear
9:15 AM 45.3 °F 40.1 °F 30.2 °F 56% 30.39 in 10.0 mi NE 10.4 mph 17.3 mph N/A   Clear
9:35 AM 46.4 °F 41.9 °F 28.2 °F 49% 30.39 in 10.0 mi ENE 9.2 mph - N/A   Clear
9:55 AM 48.9 °F - 28.0 °F 44% 30.40 in 10.0 mi NE 6.9 mph - N/A   Clear
10:15 AM 49.8 °F - 26.6 °F 41% 30.41 in 10.0 mi NE 10.4 mph - N/A   Clear
10:35 AM 50.9 °F - 25.9 °F 38% 30.41 in 10.0 mi ENE 8.1 mph - N/A   Clear
10:55 AM 52.3 °F - 26.6 °F 37% 30.41 in 10.0 mi North 9.2 mph - N/A   Clear
11:15 AM 52.9 °F - 26.4 °F 36% 30.41 in 10.0 mi NNE 9.2 mph - N/A   Clear
11:35 AM 54.0 °F - 26.6 °F 35% 30.41 in 10.0 mi North 11.5 mph - N/A   Clear
11:55 AM 55.2 °F - 25.5 °F 32% 30.42 in 10.0 mi NNE 11.5 mph 18.4 mph N/A   Clear
12:15 PM 56.5 °F - 26.4 °F 32% 30.41 in 10.0 mi NNE 15.0 mph - N/A   Clear
12:35 PM 57.4 °F - 26.4 °F 31% 30.40 in 10.0 mi North 15.0 mph - N/A   Clear
12:55 PM 57.2 °F - 26.1 °F 30% 30.40 in 10.0 mi North 12.7 mph 18.4 mph N/A   Clear
1:15 PM 58.1 °F - 27.0 °F 30% 30.39 in 10.0 mi North 13.8 mph 17.3 mph N/A   Clear
1:35 PM 58.1 °F - 26.1 °F 29% 30.38 in 10.0 mi NNE 11.5 mph 16.1 mph N/A   Clear
1:55 PM 58.3 °F - 26.4 °F 30% 30.38 in 10.0 mi North 12.7 mph - N/A   Clear
2:15 PM 59.0 °F - 27.3 °F 30% 30.36 in 10.0 mi NNW 12.7 mph 18.4 mph N/A   Clear
2:35 PM 59.0 °F - 25.9 °F 28% 30.36 in 10.0 mi NNW 9.2 mph 16.1 mph N/A   Clear
2:55 PM 58.8 °F - 26.2 °F 29% 30.35 in 10.0 mi North 12.7 mph 17.3 mph N/A   Clear
3:15 PM 59.5 °F - 27.1 °F 29% 30.34 in 10.0 mi North 10.4 mph 20.7 mph N/A   Clear
3:35 PM 59.4 °F - 27.5 °F 30% 30.33 in 10.0 mi North 11.5 mph - N/A   Clear
3:55 PM 59.9 °F - 28.6 °F 30% 30.33 in 10.0 mi North 11.5 mph 17.3 mph N/A   Clear
4:15 PM 59.0 °F - 25.9 °F 28% 30.32 in 10.0 mi North 5.8 mph - N/A   Clear
4:35 PM 59.5 °F - 28.2 °F 30% 30.32 in 10.0 mi North 8.1 mph - N/A   Clear
4:55 PM 59.2 °F - 27.7 °F 30% 30.31 in 10.0 mi NW 10.4 mph - N/A   Clear
5:15 PM 59.4 °F - 28.6 °F 31% 30.31 in 10.0 mi NNE 8.1 mph - N/A   Clear
5:35 PM 58.5 °F - 25.5 °F 28% 30.30 in 10.0 mi Calm Calm - N/A   Clear
5:55 PM 58.8 °F - 27.0 °F 30% 30.29 in 10.0 mi North 6.9 mph - N/A   Clear
6:15 PM 58.1 °F - 25.5 °F 29% 30.29 in 10.0 mi NNW 3.5 mph - N/A   Clear
6:35 PM 57.7 °F - 26.8 °F 31% 30.29 in 10.0 mi Calm Calm - N/A   Clear
6:55 PM 57.0 °F - 26.4 °F 31% 30.29 in 10.0 mi Calm Calm - N/A   Clear
7:15 PM 56.3 °F - 26.6 °F 32% 30.29 in 10.0 mi Calm Calm - N/A   Clear
7:35 PM 55.4 °F - 26.1 °F 32% 30.29 in 10.0 mi East 4.6 mph - N/A   Clear
7:55 PM 53.1 °F - 27.1 °F 37% 30.29 in 10.0 mi East 5.8 mph - N/A   Clear
8:15 PM 52.5 °F - 26.8 °F 37% 30.28 in 10.0 mi East 4.6 mph - N/A   Clear
8:35 PM 51.4 °F - 27.3 °F 39% 30.28 in 10.0 mi East 4.6 mph - N/A   Clear
8:55 PM 50.0 °F - 30.2 °F 47% 30.28 in 10.0 mi ESE 3.5 mph - N/A   Clear
9:15 PM 50.2 °F - 28.4 °F 43% 30.28 in 10.0 mi East 4.6 mph - N/A   Clear
9:35 PM 49.1 °F - 28.9 °F 46% 30.28 in 10.0 mi East 4.6 mph - N/A   Clear
9:55 PM 49.1 °F - 28.6 °F 45% 30.29 in 10.0 mi ESE 4.6 mph - N/A   Clear
10:15 PM 49.1 °F - 28.4 °F 45% 30.29 in 10.0 mi ESE 5.8 mph - N/A   Clear
10:35 PM 46.6 °F - 31.1 °F 55% 30.28 in 10.0 mi ESE 4.6 mph - N/A   Clear
10:55 PM 46.9 °F - 30.4 °F 53% 30.29 in 10.0 mi ESE 3.5 mph - N/A   Clear
11:15 PM 46.9 °F - 29.5 °F 51% 30.28 in 10.0 mi ESE 4.6 mph - N/A   Clear
11:35 PM 45.0 °F 43.5 °F 30.7 °F 57% 30.28 in 10.0 mi ESE 3.5 mph - N/A   Clear
11:55 PM 42.8 °F - 32.7 °F 68% 30.28 in 10.0 mi Calm Calm - N/A   Clear